sat.trackr.live / text

‹ back to catalog

STARLINK-36551

NORAD 67493 · 2026-012A

PAYLOAD ACTIVE UNKNOWN

§ Identity

Operator
Country
US
Launch date
2026-01-18
Launch site
AFETR
Launch vehicle
Mass (kg)
RCS (m²)

Purposes: comms

External: N2YO · Heavens-Above · Gunter

§ Orbital elements

Epoch: 2026-05-24T23:16:52.019328Z

Period
94.27 min
Inclination
43.0035°
Eccentricity
0.0001142
Mean motion
15.27593323 rev/d
Perigee alt
482.2 km
Apogee alt
483.8 km
Semi-major
6,861.1 km
B*
4.9253e-4
RAAN
243.9876°
Arg perigee
292.4909°
Mean anomaly
67.5822°
Rev number
1,942

§ Raw data

STARLINK-365511 67493U 26012A   26144.97004652  .00013321  00000+0  49253-3 0  99952 67493  43.0035 243.9876 0001142 292.4909  67.5822 15.27593323 19424

JSON: /api/v1/satellites/67493 · /tle

For live sub-satellite position, see the globe view (requires WebGL).

§ Visibility from observer

Set your observer location to see the next 7 days of passes ≥ 10°. The values pass through the URL so the page stays shareable.

No JS? Fill the form by hand. The geolocation button needs JavaScript.